Regional Weather Roundup
Issued by NWS Sioux Falls, SD

Home | Current Version | Previous Version | Text Only | Print | Product List | Glossary Off
Versions: 1 2 3 4 5 6 7 8 9 10 11 12 13 14 15 16 17 18 19 20 21 22 23 24 25 26 27 28 29 30 31 32 33 34 35 36 37 38 39 40 41 42 43 44 45 46 47 48 49 50

000
ASUS43 KFSD 030310
RWRFSD

WEATHER ROUNDUP FOR SE SOUTH DAKOTA/SW MINNESOTA/NW IOWA
NATIONAL WEATHER SERVICE SIOUX FALLS SD
1000 PM CDT SUN AUG 02 2015

NOTE: "FAIR" INDICATES FEW OR NO CLOUDS BELOW 12,000 FEET WITH NO
SIGNIFICANT WEATHER AND OR OBSTRUCTIONS TO VISIBILITY.


SDZ038>040-050-052>070-030400-
SOUTHEAST SOUTH DAKOTA

CITY           SKY/WX    TMP DP  RH WIND       PRES   REMARKS
BROOKINGS      CLEAR     64  55  72 NW5       29.93R
CHAMBERLAIN    CLEAR     72  60  67 E3        29.93R
HURON          CLEAR     70  60  70 E3        29.91R
MADISON        FAIR      64  63  94 NW6       29.93R
MITCHELL       CLEAR     69  61  75 N5        29.91R
SIOUX FALLS    CLEAR     68  60  75 N8        29.91R
WINNER         FAIR      76  60  57 SE6       29.95R
YANKTON        CLEAR     72  63  73 N12       29.87S
$$

MNZ071-072-080-081-089-090-097-098-030400-
SOUTHWEST MINNESOTA

CITY           SKY/WX    TMP DP  RH WIND       PRES   REMARKS
FAIRMONT       CLEAR     70  54  56 NW9       29.86R
JACKSON        CLEAR     64  59  82 W5        29.90R
LUVERNE        CLEAR     70  61  73 N3        29.91R
MARSHALL       CLEAR     64  55  72 NW5       29.90R
MONTEVIDEO     CLEAR     64  52  63 NW5       29.89R
PIPESTONE      CLEAR     70  59  68 CALM      29.92R
REDWOOD FALLS  CLEAR     68  59  73 NW7       29.85R
TRACY          CLEAR     68  59  73 NW6       29.89R
WINDOM         CLEAR     64  57  77 CALM      29.89R
WORTHINGTON    CLEAR     64  55  72 NW6       29.91R
$$

IAZ001>003-012>014-020>022-031-032-NEZ013-014-SDZ071-030400-
NORTHWEST IOWA

CITY           SKY/WX    TMP DP  RH WIND       PRES   REMARKS
CHEROKEE       CLEAR     73  66  78 N8        29.87R
DENISON        CLEAR     73  70  88 CALM      29.85R
ESTHERVILLE    CLEAR     65  59  81 NW7       29.87R
LE MARS        CLEAR     72  64  78 N7        29.87R
ORANGE CITY    CLEAR     72  63  73 N9        29.89R
SHELDON        CLEAR     66  63  88 N6        29.88R
SIOUX CITY     NOT AVBL
SPENCER        CLEAR     70  58  65 N8        29.88R
STORM LAKE     CLEAR     72  66  83 N10       29.89R
$$

ABBREVIATIONS USED IN REMARKS
   TC - TEMPERATURE IN CELSIUS
  WCI - WIND CHILL INDEX
   HX - HEAT INDEX
  VSB - VISIBILITY




USA.gov is the U.S. government's official web portal to all federal, state and local government web resources and services.